GFSNW_prec_cthk_075.txt.gz
RH
55 45 46 52 55 59 47 47 59 53 52 58 59 56 42 39 43 43 39 38 40 38 42 42 41 43 59 58 56 67 54 67 67 61 58 64 63 57 64 66 67 62 60 60
53 43 49 50 51 47 44 52 49 44 57 62 57 51 47 46 45 46 44 48 40 38 44 43 42 42 51 58 59 64 61 57 66 73 65 62 62 62 60 63 65 74 92 64
57 44 42 55 58 47 38 58 59 45 56 61 58 59 52 49 52 52 48 51 47 45 48 47 47 48 47 48 59 65 63 67 64 59 68 68 61 64 68 63 67 61 61 61
44 36 40 55 62 53 49 56 53 56 56 53 55 69 67 60 61 62 59 58 52 55 50 46 51 44 54 52 46 56 77 89 77 74 75 64 65 64 59 58 61 68 68 66
51 39 35 44 59 58 58 56 57 52 52 66 61 51 58 74 62 61 72 63 59 51 48 50 58 57 57 55 55 49 68 66 70 78 66 65 63 62 61 57 56 55 54 54
77 59 40 44 54 58 60 60 58 65 61 49 59 68 55 51 71 79 78 73 65 65 76 63 61 70 66 59 55 58 53 57 56 66 59 59 60 48 46 48 53 53 55 61
84 80 68 43 49 55 57 58 63 71 62 53 53 64 73 63 69 85 83 83 64 78 80 69 64 60 57 55 52 52 54 54 54 56 60 65 53 55 55 58 58 55 52 56
87 87 83 65 52 72 74 83 84 78 65 51 49 51 62 71 72 72 93 94 79 81 86 79 70 70 69 64 54 55 52 52 61 60 54 46 42 38 32 36 39 50 55 62
97 94 96 98 87 76 79 84 92 93 82 57 54 53 52 66 79 94 76 85 94 89 93 95 83 74 68 67 60 55 56 56 58 56 55 54 40 46 37 39 46 54 52 53
97 95 95 97 95 80 82 90 93 98 86 64 75 53 56 60 78 92 93 89 90 95 97 95 82 74 72 75 74 81 72 73 65 62 59 53 59 53 45 56 64 65 57 49
95 92 93 96 97 95 94 88 95 96 87 78 57 74 77 69 70 88 92 93 96 98 98 91 82 76 76 65 69 79 79 80 73 68 77 62 48 54 56 68 67 67 62 52
89 86 85 90 98 98 99 97 95 97 91 80 63 58 72 85 95 96 95 91 96 92 93 80 81 80 75 71 70 74 82 68 68 59 57 61 62 70 71 63 64 64 55 43
89 85 88 83 87 98 99 97 99 99 92 85 72 52 57 64 80 86 92 94 93 96 91 95 96 92 80 80 71 72 72 82 85 89 67 75 74 62 64 64 62 59 54 46
90 87 90 87 82 94 98 97 95 99 98 89 58 51 49 59 62 74 87 90 95 97 97 96 94 90 78 77 76 75 71 74 70 65 68 66 68 63 59 56 51 52 48 46
76 82 88 88 84 87 99 99 98 98 90 87 62 59 49 54 67 86 93 94 96 98 98 97 91 82 86 81 79 79 72 72 73 73 79 74 80 70 59 52 52 53 51 52
76 81 88 95 87 87 99 98 98 97 92 96 89 74 61 68 78 83 86 96 98 98 99 96 89 87 91 92 81 76 80 79 78 80 85 80 66 59 58 58 57 57 60 58
84 85 90 95 90 91 97 91 84 90 97 98 93 94 89 85 83 85 97 98 98 97 97 95 93 92 90 93 89 97 92 87 81 74 70 71 70 66 63 62 59 59 60 58
94 90 96 97 97 99 99 92 86 90 98 98 97 94 90 87 93 97 96 97 95 95 93 91 90 86 96 95 87 83 83 84 83 82 81 78 75 70 66 67 68 68 67 67
97 99 99 99 98 98 98 95 95 97 98 94 91 90 93 89 94 92 96 95 95 90 91 88 89 92 95 89 87 85 85 87 86 84 83 81 78 74 73 74 73 69 70 71
99 99 98 98 98 99 96 99 98 99 98 96 88 94 95 87 87 87 96 92 96 93 90 95 96 90 88 89 88 86 87 86 85 84 82 82 81 81 78 72 73 72 76 79
98 98 97 97 99 98 98 98 98 97 97 89 91 93 90 91 91 92 87 96 93 95 94 94 92 84 87 86 87 85 80 82 82 83 83 84 84 84 85 82 76 77 83 86
93 90 95 98 98 98 96 97 93 88 91 86 91 89 90 94 94 89 90 93 92 92 90 92 87 80 83 78 74 76 78 79 79 78 81 85 84 81 86 81 79 81 88 91
94 94 95 91 87 92 92 88 84 85 84 85 89 88 92 93 89 84 87 83 87 85 90 86 78 76 76 75 76 79 81 82 82 85 85 86 88 88 87 84 85 90 88 88
79 78 81 82 80 75 76 79 80 82 85 87 88 91 93 95 97 96 92 86 81 85 82 78 78 80 80 81 83 88 92 91 91 92 90 91 93 91 90 89 92 90 87 91
75 85 89 78 74 70 68 74 78 83 88 89 89 87 89 94 95 92 91 89 84 79 78 81 85 88 88 90 95 96 97 97 97 95 94 95 96 96 97 95 94 93 94 95
89 87 87 86 83 78 78 80 85 85 90 94 93 90 90 90 86 85 84 80 81 85 90 95 96 97 97 97 97 97 97 97 97 98 98 98 98 98 98 98 97 98 98 98
88 90 90 88 87 88 89 89 90 91 91 88 85 85 85 79 81 85 87 89 92 95 96 97 97 98 98 98 98 98 97 97 97 98 98 98 98 98 98 98 98 98 98 98

GFSNW_prec_cthk_078.txt.gz
RH
58 81 67 58 62 60 63 68 62 57 56 66 69 67 52 48 41 41 35 32 37 44 43 49 37 47 59 54 64 70 67 51 54 61 69 69 73 69 71 86 88 74 80 70
69 80 73 65 61 69 69 66 55 59 85 73 72 66 56 50 45 39 42 42 38 39 40 41 45 39 53 42 46 58 51 51 62 64 76 67 70 75 79 71 81 96 98 68
65 73 76 65 63 69 70 67 64 47 80 79 77 71 56 52 43 39 41 41 40 40 41 39 49 54 53 44 38 40 56 64 63 83 94 87 81 73 74 74 76 80 89 81
68 56 64 68 54 63 74 64 60 67 56 60 61 62 64 62 50 46 46 45 44 48 50 51 52 50 50 51 44 43 61 81 75 60 81 81 86 85 81 90 84 82 74 75
82 82 53 41 49 65 67 65 56 55 67 69 66 53 58 54 56 62 62 58 51 48 54 56 57 59 63 67 56 47 47 71 74 71 67 78 72 69 67 66 73 68 70 77
95 95 82 49 39 61 66 63 57 69 63 48 62 74 67 50 52 65 87 75 75 58 55 56 57 66 73 66 70 59 58 52 63 68 67 71 66 56 54 54 57 53 54 51
96 99 87 78 42 49 61 62 61 63 59 62 60 54 66 70 53 62 66 73 75 71 77 60 77 68 61 72 71 60 54 52 56 70 70 81 57 55 54 50 50 53 58 60
85 89 88 87 75 48 52 61 66 70 68 62 59 56 57 74 80 75 71 62 74 81 93 71 67 72 67 48 52 51 47 46 57 63 59 57 56 52 44 50 54 56 57 64
93 89 88 88 88 78 52 63 85 89 89 73 60 55 56 61 69 74 71 71 72 94 85 89 73 72 67 65 57 44 49 48 56 61 60 54 37 36 48 41 41 59 63 62
95 95 94 93 92 93 89 75 86 96 93 81 75 64 61 59 67 75 83 85 87 91 92 82 78 73 74 78 75 77 66 65 65 63 71 53 39 54 50 55 65 63 64 63
99 97 96 97 96 98 99 88 88 89 93 86 70 72 78 76 76 85 91 85 98 87 90 82 74 77 75 79 76 85 77 83 78 72 71 64 58 58 80 77 74 76 76 71
93 97 96 93 93 95 99 98 93 93 97 82 73 65 66 73 80 87 98 92 92 79 75 77 81 84 84 71 74 80 93 75 76 67 58 61 61 67 85 75 86 84 73 69
89 91 92 87 87 96 96 93 92 91 97 86 75 54 57 62 63 76 85 88 90 84 88 94 96 91 84 82 71 74 84 84 77 76 66 69 85 83 72 82 78 72 67 69
84 86 91 86 85 86 97 95 95 96 95 87 65 63 51 57 70 75 86 95 90 87 93 98 96 88 93 90 81 77 80 83 86 93 89 91 88 92 89 73 65 64 59 56
82 84 91 89 92 89 89 99 96 97 95 92 82 70 62 56 54 64 75 75 78 91 98 95 92 84 87 82 80 76 80 91 95 95 93 95 94 95 88 80 68 56 51 48
81 80 85 87 91 93 89 97 98 98 97 96 95 74 51 56 57 52 65 81 92 98 97 94 90 88 87 88 86 94 91 83 84 87 89 89 87 82 79 75 61 53 51 51
80 83 81 88 91 91 84 90 87 88 99 98 92 86 66 54 61 61 69 82 98 98 97 97 94 91 93 88 87 95 98 93 89 88 84 84 81 77 71 66 62 58 58 59
85 90 88 94 97 98 90 94 90 92 98 97 91 94 84 64 64 79 89 95 97 97 96 95 93 88 88 95 89 88 90 88 86 89 86 81 79 74 71 70 67 65 66 65
95 98 96 96 99 96 92 97 95 97 98 90 90 97 96 77 87 88 92 90 98 95 96 92 90 85 97 96 94 90 88 89 88 87 85 84 83 80 81 78 76 73 70 67
98 99 98 99 99 99 98 99 99 98 98 93 93 88 97 89 91 96 96 97 96 95 89 91 91 89 90 91 89 87 89 89 87 84 82 83 81 82 83 80 78 76 75 74
99 96 98 96 98 98 99 98 98 98 96 89 90 92 94 89 88 90 92 96 93 91 92 94 96 90 92 92 93 90 89 87 85 82 79 79 78 76 76 77 75 74 74 78
96 91 93 95 98 97 98 98 97 94 89 89 92 97 97 95 95 97 90 90 94 95 96 97 92 92 90 89 87 85 83 82 79 76 73 73 74 75 75 76 76 78 78 78
94 95 98 98 97 98 98 94 93 91 89 87 86 93 94 91 93 94 94 92 94 90 92 89 84 84 81 79 78 77 77 78 78 80 83 84 83 83 86 86 87 88 88 87
91 89 91 93 89 87 91 87 86 83 84 85 85 87 87 89 90 91 91 87 83 82 78 73 74 79 79 80 80 79 78 80 83 84 86 88 89 91 91 90 90 91 92 93
82 82 86 85 86 86 89 90 87 88 88 90 90 90 91 94 95 93 89 88 85 78 78 79 81 81 82 84 86 87 88 89 92 95 97 96 95 97 97 97 96 96 96 97
83 84 78 77 76 72 73 76 81 87 89 90 89 91 92 93 88 86 89 85 82 83 86 91 92 95 95 96 96 97 97 97 97 97 98 98 97 98 97 97 97 97 98 98
89 86 79 78 69 72 77 81 84 85 87 85 83 82 83 81 84 82 81 85 93 95 97 97 95 93 95 96 97 97 97 97 97 98 98 98 98 98 98 98 98 98 98 97

GFSNW_prec_cthk_084.txt.gz
RH
32 53 71 65 60 66 81 83 81 89 85 52 62 67 57 47 67 71 62 68 59 54 55 57 58 63 64 63 68 65 59 66 68 57 49 49 60 73 85 99 97 91 91 85
34 67 77 57 59 81 86 84 92 88 91 76 61 50 48 57 56 72 68 58 54 50 46 62 60 58 62 58 55 51 47 67 72 66 55 58 78 82 86 91 92 95 97 83
49 82 78 66 70 85 88 87 91 89 86 88 83 84 76 77 64 60 61 67 49 39 38 48 61 57 54 48 52 49 44 48 60 74 70 74 89 88 92 98 97 86 90 82
52 82 76 74 84 71 78 76 79 83 97 99 98 92 85 83 82 65 59 53 51 55 55 57 55 54 54 53 53 48 47 48 46 46 47 48 67 75 92 95 97 98 88 92
62 86 74 79 89 89 75 65 65 73 86 90 97 93 89 90 79 73 62 60 64 71 69 70 68 56 53 54 53 54 58 56 50 45 37 43 58 67 76 97 93 96 90 97
78 85 77 76 91 95 82 57 54 64 76 80 88 96 89 91 91 81 79 72 75 72 63 63 58 54 49 49 53 54 57 65 64 56 45 47 61 72 72 85 86 93 91 85
90 85 77 76 87 93 86 63 56 58 59 65 71 79 80 79 79 82 74 73 70 66 64 58 53 51 46 43 47 49 56 64 72 79 59 56 46 62 68 79 79 80 78 84
89 88 80 79 85 90 82 70 49 58 56 53 61 66 76 85 76 75 69 61 65 68 70 65 61 59 53 47 41 43 46 56 67 71 68 50 37 60 68 68 77 72 69 79
88 94 88 83 84 85 84 86 56 52 60 51 50 60 61 70 74 69 67 65 66 69 69 72 74 73 70 62 51 46 56 60 66 69 71 69 39 66 67 70 83 74 73 76
89 96 96 91 89 86 85 85 80 59 60 53 55 58 63 62 66 72 73 69 69 71 77 76 75 75 71 66 59 55 72 82 68 70 72 61 34 59 70 85 87 81 79 80
90 95 97 96 95 91 88 82 85 68 64 61 68 67 68 70 72 72 72 74 78 79 81 74 79 80 69 64 61 67 80 92 93 74 69 63 35 56 66 80 85 80 78 77
91 91 92 96 98 98 93 83 79 86 86 77 74 75 73 67 71 75 76 84 91 92 90 82 85 82 75 75 80 81 91 95 94 85 74 71 68 65 70 79 75 79 84 85
88 88 93 95 97 98 98 96 95 96 95 89 80 73 73 63 67 72 75 85 94 98 98 95 86 79 77 85 86 89 97 98 94 87 90 86 89 92 82 83 83 83 93 90
93 93 94 98 97 99 98 96 97 97 96 94 80 75 64 55 57 62 74 83 89 94 98 93 89 78 75 84 87 94 98 97 98 99 98 97 95 93 91 96 93 81 84 82
88 92 92 96 98 98 97 99 98 98 98 91 84 74 61 54 53 57 71 80 88 93 94 87 91 81 82 88 97 93 97 98 97 98 98 96 99 97 96 98 95 87 87 84
89 87 91 93 96 95 93 93 94 97 98 94 87 76 67 65 65 56 58 69 87 90 93 85 88 83 89 96 99 98 98 98 98 98 98 98 98 98 97 94 91 89 88 83
81 80 80 94 97 93 92 89 85 95 98 93 88 82 76 78 67 64 60 66 81 95 92 91 92 87 89 96 97 97 97 96 93 96 95 96 98 96 93 90 89 85 85 81
88 87 84 85 96 98 95 93 87 94 96 94 90 81 90 83 67 74 58 59 75 88 83 87 86 88 90 92 93 92 93 92 91 92 90 91 90 88 88 89 87 83 79 77
90 90 91 92 87 92 92 97 93 96 96 89 83 84 91 92 83 88 74 63 74 74 73 80 87 90 85 85 88 87 86 86 86 88 89 86 86 87 85 83 80 78 77 73
99 98 94 88 89 95 97 97 98 99 98 90 82 86 91 98 88 87 81 74 78 80 79 86 84 82 84 87 88 89 87 84 84 85 84 85 88 88 84 81 79 77 75 73
98 99 94 89 98 98 98 98 97 96 90 81 81 87 94 97 88 77 74 82 86 87 83 93 89 83 82 86 85 85 88 87 88 91 91 88 82 79 78 77 77 76 76 75
94 88 86 95 99 98 97 96 96 86 81 74 82 86 89 99 95 89 85 88 92 94 98 95 90 87 90 90 90 88 89 89 89 88 88 85 81 79 79 79 79 79 78 78
97 98 98 98 97 92 87 92 86 79 76 75 83 86 90 94 97 92 91 91 95 97 96 95 94 95 94 88 82 78 78 79 79 78 77 77 76 77 78 78 80 81 84 85
96 96 94 94 88 84 85 81 77 75 77 79 84 90 96 96 96 97 97 93 92 95 92 90 93 85 81 79 76 74 74 75 75 76 79 80 82 83 85 87 87 90 91 93
87 84 89 87 83 84 84 83 81 83 87 86 88 92 93 96 96 96 92 94 91 88 86 84 85 82 79 79 81 83 83 83 86 90 92 94 94 95 97 97 97 97 98 98
82 84 87 88 83 83 83 86 85 86 89 86 84 91 92 93 92 90 91 89 87 85 83 81 83 86 84 77 68 65 61 61 63 66 70 75 81 87 93 97 97 98 98 98
83 92 95 95 93 90 90 88 85 86 86 85 85 86 88 86 87 88 85 84 83 83 85 91 85 75 63 58 55 57 60 62 63 64 65 67 68 70 74 77 78 80 80 80

GFSNW_prec_cthk_087.txt.gz
RH
28 27 30 44 68 52 57 69 77 74 94 98 71 65 55 59 67 75 86 92 80 69 70 66 63 81 77 73 71 61 57 65 73 68 62 56 51 67 84 95 94 97 98 83
28 31 36 60 71 59 64 76 78 86 97 98 69 59 57 61 64 73 85 87 89 75 76 73 71 69 67 66 60 63 56 68 62 68 71 71 70 73 88 95 97 93 97 83
26 32 40 71 70 71 70 71 80 80 98 98 87 64 80 75 71 80 84 85 83 81 72 72 73 64 60 64 65 58 56 59 57 61 66 72 72 79 83 90 98 98 93 83
31 30 46 76 71 77 79 73 68 84 93 96 90 96 98 94 86 82 91 86 89 87 78 68 73 73 62 60 56 54 52 54 54 51 52 56 52 52 54 79 89 99 86 90
31 30 57 78 72 76 82 81 69 69 83 86 95 97 98 98 93 80 84 87 77 76 68 60 58 63 63 68 54 51 52 58 56 52 46 42 43 38 43 62 80 89 90 92
32 32 65 81 76 74 82 83 75 62 68 78 88 93 94 97 93 92 84 74 66 69 60 56 52 54 60 66 64 56 54 59 60 58 52 48 48 36 50 60 81 85 94 96
29 44 78 81 76 75 83 82 77 65 60 72 80 83 85 87 90 90 80 76 71 65 63 60 58 60 53 55 49 46 48 52 61 66 53 59 41 37 51 58 74 80 80 87
36 57 80 80 77 79 83 81 74 59 51 59 68 75 81 84 86 85 82 78 80 76 70 63 60 53 45 41 40 42 42 46 55 59 57 46 38 39 52 63 72 77 76 79
36 60 82 86 80 81 82 83 79 71 51 43 49 61 73 81 85 85 83 79 70 62 62 65 65 59 54 53 53 51 53 56 61 64 67 60 36 38 52 58 69 75 73 75
39 64 85 93 87 86 82 81 85 79 64 43 49 52 62 66 77 83 81 75 75 68 67 66 70 66 56 58 61 54 62 64 66 69 70 54 36 35 46 69 81 83 83 84
50 69 89 94 95 92 86 82 85 80 72 60 46 51 46 51 56 61 62 66 67 70 72 76 75 68 64 65 56 55 63 71 74 80 83 72 48 40 47 63 89 93 92 94
58 79 91 91 94 96 92 87 85 85 76 70 63 57 57 62 62 62 59 65 69 79 83 83 80 76 76 72 68 64 75 80 85 83 82 82 77 63 57 62 86 94 92 97
70 87 91 91 91 94 95 90 88 85 79 79 80 73 69 68 66 61 63 64 68 83 86 89 89 84 79 75 69 75 79 91 94 99 91 88 84 76 73 73 78 88 95 94
82 87 90 91 93 95 98 96 93 95 95 90 80 76 71 66 56 52 61 66 77 91 96 95 97 86 80 76 75 88 92 93 98 98 94 95 98 92 95 95 89 82 88 93
90 92 93 95 98 98 98 97 97 97 96 91 84 77 74 68 53 52 59 70 84 92 96 98 91 89 87 81 84 90 96 97 98 98 98 98 98 99 99 97 97 94 96 94
92 90 94 97 98 98 98 99 98 98 97 95 88 82 77 68 52 53 65 80 88 90 98 97 89 90 89 83 96 98 97 98 98 98 98 98 97 98 98 97 97 95 94 94
95 94 94 94 95 94 97 93 86 90 95 97 90 84 76 76 70 63 71 76 80 86 91 93 88 89 90 86 93 96 96 97 96 96 98 97 97 97 93 90 89 87 86 85
97 94 92 88 97 97 96 94 86 87 97 94 92 85 84 87 87 80 70 74 74 86 94 91 91 85 89 87 88 90 94 94 91 93 93 93 93 88 85 84 83 80 82 82
96 95 93 89 83 90 98 97 91 92 94 92 89 82 91 93 79 80 73 67 75 76 80 84 78 83 85 82 83 90 91 90 86 86 86 88 87 86 84 82 78 77 78 75
93 95 94 89 84 88 96 99 94 93 94 92 87 80 90 93 95 87 88 72 63 70 70 71 75 77 82 84 86 85 87 88 87 86 81 81 83 88 87 82 79 78 75 72
99 99 88 86 90 93 97 96 92 88 87 86 81 82 90 90 97 88 81 78 72 80 78 85 87 87 89 87 86 86 84 84 83 80 81 85 85 84 81 79 77 77 78 78
95 95 89 96 95 98 93 90 87 80 80 79 79 85 90 95 98 86 78 87 88 88 91 91 89 89 91 91 88 84 81 78 75 76 77 79 79 79 80 78 78 78 78 79
99 97 99 97 98 98 81 79 75 74 76 72 78 86 91 91 98 95 89 84 86 87 91 94 89 91 91 87 80 77 75 73 70 68 70 71 72 73 74 74 74 73 74 75
97 98 98 97 90 77 74 68 66 72 74 74 78 86 90 92 97 97 95 90 92 95 91 88 89 92 85 79 75 72 71 71 72 75 77 80 83 84 86 87 88 89 90 91
91 85 90 88 84 77 75 75 81 80 80 75 81 90 93 96 97 94 91 93 91 88 83 82 84 84 81 77 77 77 74 68 63 65 64 61 63 66 69 74 79 84 89 92
88 87 89 85 82 80 75 79 83 83 87 81 85 92 92 92 89 87 91 90 87 84 82 81 80 80 82 76 68 63 61 61 59 57 57 60 62 64 65 66 67 69 72 74
89 91 89 85 83 79 80 82 84 87 86 86 83 85 87 86 85 87 88 87 85 83 79 79 82 80 68 61 58 53 52 54 57 60 63 65 66 69 70 71 72 72 72 71